Find Starlink 32161

NORAD ID: 60593 Int'l Des: 2024-150 Owner: SPXS Country: US Constellation: starlink operational
LEOCIRCULAR

Current View

Loading 3D Globe...

About Starlink 32161

Starlink 32161 (NORAD 60593) is a starlink constellation satellite (v2 mini) launched Aug 20, 2024 by SPXS of US. It operates in LEO, CIRCULAR orbit with a mass of 730.00 kg.

About Starlink 32161

Description loading...

Upcoming Passes

Passes for default location (London). Set your location on the main map for personalized predictions.

Altitude History

Loading altitude history...

Two-Line Element Set

1 60593U 24150L 26175.26872217 .00000599 00000-0 28869-4 0 9991
2 60593 53.1593 170.2389 0001006 85.9141 274.1976 15.34393424104308
Epoch: Jun 24, 2026 • Age: 18 hours

Current Status

Altitude 481.9 km
Velocity 7.62 km/s
Sub-Earth Point -53.29°S, 148.88°E
Launch Date Aug 20, 2024
Age 1.8 years
Type internet

Technical Details

Classification Payload
Mass 730.00 kg
Dry Mass 700.00 kg
Total Mass 730.00 kg
Length 0.30 m
Diameter 4.10 m
Span 29.00 m
Shape Box + pan
Manufacturer SPXS
Bus Type Starlink V2M
Phase Status In Orbit
Owner/State SPXS/US

Most Searched